Погода в Домашове

Россия / Брянская область     53°27′33″N   34°03′19″E
темп.,
°C
ветер,
м/с
пор.,
м/с
влажн.,
%
обл.,
%
осадки,
мм/ч
давл.,
гПа
погр.,
м
12 мая, ср
ср1200:00+10вюв399595 0.1 1023400
03:00+7вюв310936 0.1 1024335
06:00+6вюв28941 0.0 1025237
09:00+11вюв35694 0.0 1025634
12:00+16всв454630 0.0 10221776
15:00+14всв3560100 0.1 10201439
18:00+11в2584100 0.9 1018361
21:00+7в25955 0.9 1017112
13 мая, чт
чт1300:00+7всв31096100 0.0 1016297
03:00+8в41197100 2.4 1014839
06:00+7юв5119384 2.1 1015684
09:00+9юв5983100 2.1 1015824
12:00+14ююв5861100 0.3 10141631
15:00+15ююв465561 0.6 10131722
18:00+12ююв267253 0.0 1014300
21:00+8ююв24895 0.1 101566
14 мая, пт
пт1400:00+7юв249128 0.0 101565
03:00+7вюв3892100 0.0 1015153
06:00+9вюв3984100 0.0 1015240
09:00+11в3118597 0.1 1013383
12:00+19юв586798 0.0 10111074
15:00+21ююв586888 1.7 10101360
18:00+19ю3780100 2.1 1009619
21:00+14ю26949 3.1 1009113
15 мая, сб
сб1500:00+13ююв25969 0.0 100992
03:00+12ю229687 0.0 100922
06:00+12ююв2597100 0.0 1009116
09:00+17ю367970 0.0 1009548
12:00+20ююз466613 1.4 10081215
15:00+19ююз467391 3.8 10091050
18:00+16зюз4886100 2.5 1009610
21:00+12ююз24941 2.6 101169
16 мая, вс
вс1600:00+11ююз25955 0.0 1012115
03:00+9ююз25965 0.0 101399
06:00+10ю27965 0.0 1013201
09:00+15ююз36763 0.0 1014665
12:00+19юз35552 0.0 10141292
15:00+21юз344918 0.0 10141707
18:00+20ююз235699 0.0 10141305
21:00+15вюв1175100 0.0 101411